[[{"header":{"parameterUnit":"m.s-1","parameterCategory":1,"la1":30.2991,"la2":30.254,"lo1":-89.0895,"lo2":-89.0444,"dy":0.0017,"dx":0.0017,"nx":28,"ny":28,"refTime":"2024-08-14T21:00:00:Z","depth":0,"parameterNumber":2,"parameterNumberName":"U-component_of_WINDS"},"data":[0,0,0,0,0,0,0,0,0,0,0,0,0,0,0,0,0,0,0,0,0,0,0,0,0,0,0,0,0,0,0,0,0,0,0,0,0,0,0,0,0,0,0,0,0,0,0,0,0,0,0,0,0,0,0,0,0,0,-0.2829,-0.2829,0,-0.2877,-0.2878,-0.2878,-0.2907,-0.2907,-0.2907,-0.2907,-0.2956,-0.2957,-0.2958,0,0,0,0,0,0,0,0,0,0,0,0,0,-0.2762,-0.2763,-0.2829,-0.283,-0.283,-0.2877,-0.2878,-0.2878,-0.2907,-0.2907,-0.2907,-0.2907,-0.2956,-0.2957,-0.2959,0,0,0,0,0,0,0,0,0,0,0,0,0,-0.2799,-0.2764,-0.2829,-0.285,-0.2852,-0.2877,-0.2878,-0.2879,-0.2907,-0.2907,-0.2907,-0.2907,-0.2955,-0.2957,-0.2959,-0.2966,0,0,-0.2964,-0.2965,0,0,0,0,0,0,0,0,-0.2797,-0.2801,-0.2846,-0.2848,-0.2851,-0.2886,-0.2872,-0.2908,-0.2907,-0.2886,-0.2907,-0.2907,-0.2933,-0.2936,-0.2945,-0.2968,-0.2971,-0.2964,-0.2965,-0.2966,-0.2967,0,0,0,0,0,0,0,-0.2794,-0.2799,-0.2848,-0.2847,-0.285,-0.2857,-0.2863,-0.2879,-0.2908,-0.2888,-0.289,-0.2895,-0.2934,-0.2943,-0.2946,-0.2971,-0.2964,-0.2966,-0.2967,-0.2968,-0.3005,-0.3005,0,0,0,0,0,0,-0.2788,-0.2797,-0.2847,-0.2849,-0.2824,-0.2858,-0.2864,-0.2875,-0.2908,-0.2913,-0.2895,-0.2896,-0.294,-0.2944,-0.2948,-0.296,-0.2966,-0.2968,-0.2969,-0.3005,-0.3005,-0.3005,0,0,0,0,0,0,-0.2787,-0.2792,-0.2845,-0.2824,-0.2831,-0.2859,-0.2871,-0.2876,-0.2885,-0.2913,-0.2918,-0.2899,-0.294,-0.2946,-0.2962,-0.2962,-0.2969,-0.297,-0.3005,-0.3005,-0.3005,-0.2983,0,0,0,0,0,0,-0.2785,-0.2792,-0.2794,-0.2824,-0.2832,-0.2857,-0.2871,-0.2876,-0.2888,-0.289,-0.2918,-0.2923,-0.2941,-0.2959,-0.2964,-0.2965,-0.2972,-0.3005,-0.3005,-0.3005,-0.2984,-0.2982,-0.2981,0,0,0,0,0,-0.2782,-0.2786,-0.2794,-0.28,-0.2836,-0.2857,-0.2862,-0.2882,-0.2888,-0.2891,-0.291,-0.2922,-0.2961,-0.296,-0.2966,-0.2967,-0.3005,-0.3005,-0.3005,-0.2984,-0.2982,-0.2981,0,0,0,0,0,0,-0.2755,-0.279,-0.28,-0.2813,-0.2832,-0.2862,-0.2866,-0.2879,-0.2897,-0.2898,-0.2923,-0.2929,-0.2943,-0.2957,-0.2955,-0.2977,-0.2985,-0.2986,-0.2967,-0.2966,-0.2964,-0.296,-0.2973,0,0,0,0,0,-0.2751,-0.2765,-0.2795,-0.2804,-0.2813,-0.2838,-0.2848,-0.2862,-0.2882,-0.289,-0.291,-0.2929,-0.2946,-0.2957,-0.2974,-0.2986,-0.2993,-0.299,-0.2988,-0.2987,-0.2987,-0.2996,-0.2995,-0.3004,-0.3004,-0.3004,0,0,-0.2742,-0.2763,-0.277,-0.2799,-0.2815,-0.2829,-0.2844,-0.2858,-0.2869,-0.2892,-0.2909,-0.2924,-0.2948,-0.2963,-0.297,-0.2975,-0.2987,-0.2987,-0.2985,-0.2987,-0.2996,-0.2995,-0.2994,-0.3004,-0.3004,-0.3004,0,0,-0.2733,-0.275,-0.276,-0.2776,-0.2801,-0.2818,-0.282,-0.2849,-0.286,-0.2877,-0.2895,-0.2909,-0.2937,-0.2953,-0.2965,-0.2964,-0.2977,-0.2969,-0.2961,-0.2969,-0.2968,-0.2968,-0.2968,-0.2968,-0.2969,-0.2969,-0.2969,0,-0.2719,-0.2741,-0.2763,-0.2777,-0.2789,-0.2812,-0.2822,-0.2837,-0.2865,-0.2874,-0.2879,-0.2916,-0.2933,-0.2952,-0.2952,-0.2961,-0.2965,-0.2966,-0.2967,-0.2966,-0.2966,-0.2967,-0.2967,-0.2968,-0.2968,-0.2969,-0.2969,0,-0.2723,-0.2738,-0.2743,-0.2771,-0.2784,-0.2796,-0.282,-0.2831,-0.2844,-0.2861,-0.2879,-0.2901,-0.2923,-0.2929,-0.2942,-0.2951,-0.2953,-0.2962,-0.297,-0.2964,-0.2965,-0.2965,-0.2967,-0.2967,-0.2967,-0.2968,0,0,-0.2698,-0.2739,-0.274,-0.2753,-0.2783,-0.2795,-0.2809,-0.2831,-0.284,-0.2859,-0.2872,-0.2896,-0.2905,-0.2918,-0.2934,-0.2941,-0.294,-0.2949,-0.295,-0.2947,-0.2952,-0.2945,-0.2945,-0.2949,-0.2949,-0.2949,-0.295,0,-0.2693,-0.2718,-0.2739,-0.2757,-0.2771,-0.2793,-0.2805,-0.2825,-0.2841,-0.2857,-0.2875,-0.2892,-0.2902,-0.2911,-0.2919,-0.2938,-0.2941,-0.2938,-0.2961,-0.2962,-0.2954,-0.2946,-0.2938,-0.2938,-0.2951,-0.2951,-0.2951,0,-0.2692,-0.2711,-0.2729,-0.2759,-0.2766,-0.2776,-0.2799,-0.2813,-0.2836,-0.2847,-0.2863,-0.288,-0.2896,-0.2903,-0.2926,-0.2923,-0.2934,-0.2945,-0.2946,-0.2949,-0.2956,-0.2948,-0.2938,-0.2938,-0.2952,-0.2952,-0.2952,0,-0.2672,-0.2702,-0.2718,-0.2729,-0.2763,-0.277,-0.2784,-0.2808,-0.282,-0.284,-0.2849,-0.287,-0.2882,-0.2899,-0.2921,-0.2924,-0.2942,-0.295,-0.2952,-0.2952,-0.2955,-0.2954,-0.2947,-0.2961,-0.2961,-0.2961,-0.2961,0,-0.2665,-0.2676,-0.271,-0.2719,-0.2732,-0.2757,-0.2769,-0.2786,-0.2807,-0.2821,-0.2841,-0.2854,-0.2882,-0.2898,-0.2916,-0.2932,-0.2937,-0.2948,-0.2952,-0.2946,-0.2945,-0.2953,-0.2954,-0.2961,-0.2961,-0.2961,-0.2961,0,-0.2645,-0.2668,-0.2687,-0.2718,-0.2726,-0.2734,-0.2761,-0.2772,-0.279,-0.2807,-0.2813,-0.2841,-0.2861,-0.2885,-0.2913,-0.2925,-0.2941,-0.2947,-0.2933,-0.2935,-0.2936,-0.2936,-0.2934,-0.2935,-0.2948,-0.2948,-0.2948,0,-0.2639,-0.2648,-0.268,-0.2691,-0.2705,-0.2722,-0.2735,-0.276,-0.2773,-0.2801,-0.2808,-0.283,-0.2849,-0.2881,-0.2904,-0.2926,-0.2933,-0.2931,-0.2937,-0.2931,-0.2934,-0.2933,-0.2935,-0.2929,-0.2929,-0.2929,-0.2929,0,-0.2626,-0.2638,-0.2655,-0.2678,-0.2693,-0.2711,-0.2731,-0.2739,-0.2768,-0.2781,-0.2802,-0.2817,-0.2846,-0.2868,-0.2893,-0.2909,-0.2924,-0.2927,-0.2929,-0.2922,-0.2914,-0.2919,-0.2929,-0.2927,-0.2927,-0.2927,-0.2927,-0.2927,-0.2613,-0.2623,-0.2647,-0.2667,-0.2685,-0.2703,-0.2714,-0.2734,-0.2752,-0.2778,-0.2792,-0.2813,-0.2838,-0.2873,-0.2888,-0.2906,-0.2911,-0.2913,-0.2914,-0.2914,-0.2913,-0.2911,-0.291,-0.2911,-0.2911,-0.2911,-0.2911,0,-0.2602,-0.2619,-0.2637,-0.2664,-0.268,-0.2693,-0.2716,-0.2728,-0.2746,-0.2768,-0.2786,-0.2811,-0.2833,-0.2859,-0.2882,-0.2892,-0.2899,-0.2897,-0.2897,-0.29,-0.2906,-0.2903,-0.2891,-0.2891,-0.2891,-0.2891,-0.2891,-0.2891,-0.2598,-0.2615,-0.2629,-0.2656,-0.2673,-0.2694,-0.2706,-0.2723,-0.2741,-0.2768,-0.2786,-0.2802,-0.2826,-0.2852,-0.2873,-0.288,-0.2888,-0.2884,-0.2893,-0.2898,-0.29,-0.2901,-0.2898,-0.2885,-0.2885,-0.2886,-0.2886,-0.2886]},{"header":{"parameterUnit":"m.s-1","parameterCategory":1,"la1":30.2991,"la2":30.254,"lo1":-89.0895,"lo2":-89.0444,"dy":0.0017,"dx":0.0017,"nx":28,"ny":28,"refTime":"2024-08-14T21:00:00:Z","depth":0,"parameterNumber":3,"parameterNumberName":"V-component_of_WINDS"},"data":[0,0,0,0,0,0,0,0,0,0,0,0,0,0,0,0,0,0,0,0,0,0,0,0,0,0,0,0,0,0,0,0,0,0,0,0,0,0,0,0,0,0,0,0,0,0,0,0,0,0,0,0,0,0,0,0,0,0,3.396,3.3961,0,3.4041,3.4042,3.4043,3.4133,3.4134,3.4135,3.4137,3.4212,3.4213,3.4213,0,0,0,0,0,0,0,0,0,0,0,0,0,3.3875,3.3876,3.396,3.3961,3.3962,3.4041,3.4042,3.4043,3.4132,3.4134,3.4136,3.4137,3.4212,3.4213,3.4214,0,0,0,0,0,0,0,0,0,0,0,0,0,3.3929,3.3877,3.396,3.4016,3.4022,3.4041,3.4042,3.4044,3.4132,3.4134,3.4136,3.4138,3.4211,3.4213,3.4214,3.4181,0,0,3.4217,3.4218,0,0,0,0,0,0,0,0,3.3926,3.3932,3.4007,3.4013,3.4019,3.4079,3.404,3.409,3.4132,3.409,3.4137,3.4139,3.4166,3.4171,3.4181,3.4185,3.4188,3.4217,3.4218,3.4219,3.4219,0,0,0,0,0,0,0,3.3922,3.3929,3.3992,3.4008,3.4015,3.4035,3.4045,3.405,3.4115,3.4094,3.4101,3.4109,3.4169,3.418,3.4184,3.4189,3.4217,3.4218,3.4219,3.422,3.4169,3.4167,0,0,0,0,0,0,3.3911,3.3926,3.399,3.3995,3.3977,3.4035,3.4046,3.4058,3.4116,3.4127,3.4108,3.4113,3.4177,3.4182,3.4187,3.4152,3.4219,3.422,3.422,3.4171,3.4168,3.4166,0,0,0,0,0,0,3.3909,3.3916,3.3986,3.3962,3.3973,3.4035,3.4047,3.4058,3.4069,3.4126,3.4138,3.4107,3.4179,3.4185,3.4182,3.4156,3.422,3.4221,3.4173,3.417,3.4167,3.4082,0,0,0,0,0,0,3.3906,3.3915,3.3905,3.3961,3.3974,3.3982,3.4045,3.4058,3.4072,3.408,3.4129,3.4139,3.4181,3.418,3.4183,3.4159,3.4222,3.4176,3.4172,3.4168,3.4088,3.4077,3.4067,0,0,0,0,0,3.3903,3.3876,3.3904,3.3911,3.3963,3.3981,3.3988,3.4039,3.4069,3.4059,3.4095,3.4137,3.4158,3.4179,3.4184,3.4159,3.4178,3.4173,3.4169,3.4092,3.4079,3.4068,0,0,0,0,0,0,3.3812,3.3884,3.3916,3.3907,3.3938,3.3996,3.3984,3.4023,3.4043,3.405,3.411,3.412,3.411,3.4134,3.4156,3.413,3.4174,3.417,3.4114,3.4102,3.4092,3.4086,3.4223,0,0,0,0,0,3.3791,3.3802,3.3864,3.385,3.3864,3.3921,3.3931,3.3968,3.4001,3.4013,3.405,3.4078,3.4091,3.4098,3.4113,3.4092,3.4103,3.4077,3.4067,3.4058,3.4053,3.4043,3.4032,3.4151,3.4151,3.4151,0,0,3.3748,3.3789,3.3792,3.3833,3.3861,3.3869,3.3931,3.3937,3.3942,3.4013,3.4014,3.4041,3.4076,3.4064,3.406,3.4083,3.4023,3.4052,3.4045,3.4045,3.4037,3.4026,3.4015,3.4148,3.4149,3.4149,0,0,3.3673,3.3706,3.3698,3.3725,3.3767,3.3805,3.3803,3.3856,3.3878,3.3879,3.3933,3.3939,3.3961,3.3983,3.3998,3.3931,3.397,3.3934,3.388,3.3869,3.386,3.3852,3.3827,3.3817,3.393,3.3929,3.3929,0,3.3613,3.3629,3.3688,3.3691,3.3706,3.3774,3.3765,3.3787,3.3831,3.3839,3.3865,3.3894,3.3922,3.3916,3.39,3.3909,3.3907,3.3928,3.3857,3.3849,3.3843,3.3819,3.381,3.3925,3.3925,3.3926,3.3926,0,3.3553,3.3563,3.3551,3.3594,3.3609,3.3605,3.3661,3.3668,3.3704,3.3739,3.3738,3.3775,3.3799,3.38,3.3834,3.3798,3.3811,3.3846,3.3892,3.3826,3.3805,3.3796,3.3918,3.392,3.3921,3.3922,0,0,3.3421,3.3499,3.3493,3.3513,3.3565,3.3573,3.3571,3.3597,3.3601,3.3629,3.3628,3.3645,3.3678,3.3694,3.3731,3.3722,3.3665,3.3758,3.376,3.3739,3.3626,3.3599,3.3588,3.3692,3.369,3.3689,3.3623,0,3.3354,3.336,3.3412,3.3401,3.341,3.3474,3.3473,3.3503,3.3535,3.3546,3.358,3.3591,3.3635,3.3645,3.3638,3.3674,3.3643,3.3679,3.3689,3.3689,3.3678,3.3577,3.3548,3.3483,3.3615,3.3614,3.3613,0,3.3277,3.3303,3.3293,3.3345,3.3351,3.3349,3.3376,3.3387,3.3421,3.3445,3.3464,3.3506,3.3506,3.355,3.355,3.3573,3.358,3.3598,3.3597,3.3598,3.3646,3.3575,3.3464,3.3454,3.3601,3.3602,3.3603,0,3.3181,3.3213,3.3211,3.3227,3.3288,3.3285,3.3309,3.3347,3.3358,3.3381,3.3389,3.3411,3.3422,3.3437,3.3484,3.3512,3.3477,3.3525,3.3495,3.3494,3.3484,3.3484,3.3372,3.349,3.3491,3.3491,3.3491,0,3.31,3.3091,3.3169,3.3168,3.3159,3.3219,3.3208,3.3238,3.3271,3.3275,3.3331,3.3333,3.3395,3.3403,3.3439,3.3433,3.3438,3.3455,3.3465,3.345,3.3447,3.3454,3.346,3.3488,3.3489,3.3489,3.349,0,3.299,3.3043,3.3045,3.3103,3.3118,3.3108,3.3157,3.3157,3.3193,3.3197,3.3202,3.3257,3.327,3.3319,3.3342,3.3367,3.3348,3.3367,3.3336,3.3342,3.3309,3.3311,3.3197,3.3185,3.3311,3.331,3.3309,0,3.2935,3.293,3.2988,3.2996,3.302,3.3031,3.3045,3.3103,3.3113,3.3153,3.3147,3.3165,3.3182,3.3199,3.324,3.3258,3.3278,3.3236,3.328,3.3265,3.3276,3.3275,3.3274,3.3226,3.3224,3.3223,3.3222,0,3.283,3.2857,3.2875,3.2902,3.2917,3.294,3.2966,3.2969,3.3033,3.3042,3.3057,3.3071,3.3096,3.3112,3.3137,3.316,3.32,3.3208,3.3202,3.3186,3.3168,3.3176,3.3309,3.321,3.3211,3.3212,3.3213,3.3213,3.2745,3.2744,3.2785,3.2803,3.283,3.2853,3.2856,3.2893,3.2908,3.2935,3.2968,3.2978,3.3012,3.305,3.307,3.3078,3.31,3.3091,3.3089,3.3086,3.3078,3.3168,3.3082,3.3083,3.3083,3.3083,3.3084,0,3.2643,3.2673,3.2689,3.2725,3.2739,3.2779,3.2811,3.2818,3.2828,3.2858,3.2874,3.289,3.2907,3.2949,3.2969,3.2966,3.2986,3.2969,3.297,3.2974,3.3057,3.306,3.2954,3.2954,3.2954,3.2954,3.2954,3.2954,3.2591,3.259,3.2621,3.2634,3.2663,3.2676,3.269,3.2711,3.2736,3.2752,3.2767,3.2796,3.283,3.2853,3.2868,3.288,3.2884,3.2862,3.2879,3.2956,3.2968,3.298,3.2983,3.2862,3.2862,3.2796,3.2795,3.2795]}]]